Find OneWeb SL0703

NORAD ID: 56724 Int'l Des: 2023-068 Owner: ONEWEBN Country: UK Constellation: oneweb operational
LEOCIRCULARPOLARONEWEB_TYPE

現在のビュー

3D地球を読み込み中...

About OneWeb SL0703

OneWeb SL0703 (NORAD 56724) is a oneweb constellation satellite launched May 20, 2023 by ONEWEBN of UK. It operates in LEO, CIRCULAR, POLAR, ONEWEB_TYPE orbit with a mass of 148.00 kg.

OneWeb SL0703について

説明を読み込み中...

次回通過

Passes for default location (London). Set your location on the main map for personalized predictions.

高度履歴

Loading altitude history...

軌道要素

1 56724U 23068Q 26195.56281122 -.00000037 00000-0 -13298-3 0 9991
2 56724 87.8990 253.7481 0001742 125.2535 234.8759 13.15548066152852
Epoch: Jul 14, 2026 • Age: 7 hours

現在のステータス

高度 1205.1 km
遠地点 / 近地点 N/A
速度 7.25 km/s
衛星直下点 2.04°N, 8.74°E
打ち上げ日 May 20, 2023
運用期間 3.1 years
タイプ internet

技術仕様

分類 Payload
質量 148.00 kg
乾燥質量 140.00 kg
総質量 148.00 kg
長さ 1.30 m
直径 1.00 m
スパン 5.00 m
形状 Trapezoid+2 pan
製造者 ONEWUS
バスタイプ ARROW
フェーズステータス In Orbit
所有者/国 ONEWEBN/UK

Most Searched